Location: *
(51.1248°S, 108.4023°W)
Time: 03:18:53
(UTC+00:00)

ARGOS - Pass Details

Date: 15 June 2021
Orbit: 820 x 835 km, 98.4° (Epoch: 31 July)

Event Time Altitude Azimuth Distance (km) Brightness Sun altitude
Rises 13:03:25 0° 37° (NE) 3,373 7.1 -19.6°
Reaches altitude 10° 13:05:50 10° 43° (NE) 2,444 6.4 -19.2°
Maximum altitude 13:10:58 45° 114° (ESE) 1,124 4.2 -18.4°
Drops below altitude 10° 13:16:09 10° 185° (S) 2,462 5.4 -17.7°
Sets 13:18:35 0° 190° (S) 3,400 6.1 -17.3°
